PEGASUS DEB, 23986

Orbit data source: Space-Track

PEGASUS DEB, 23986 is space debris in LEO originally from a launch on Thu, 19 May 1994 UTC launched from the Air Force Western Test Range (AFWTR). Debris objects in space refer to the collection of defunct objects orbiting the Earth. Examples of debris include non-operational satellites, rocket bodies, and fragments generated from explosions, collisions, or faulty payload assembly.

Loading next visibility...
Identifier
23986, 1994-029AG
Orbit
LEO
Country
Flag of USUS
Related business
Manufacturer
Unknown
Mission
Spacecraft
Bus & Motor
Unknown
Mass
Unknown
Launch date (UTC)
1994-05-19 (32 years ago)
Launch vehicle
Unknown
Launch site
Air Force Western Test Range (AFWTR)
Object type
Payload
Rocket body
Debris
Shape & HBR
Unknown shape, 0.1 m
Radar Cross Section
Medium (>0.1 m² and <1 m²)

Expand to show TLE details & history
Last TLE update: 13 hours ago

TLE from 13 hours ago
0 PEGASUS DEB
1 23986U 94029AG  26228.54974337  .00015291  00000-0  32106-3 0  9997
2 23986  82.0344 271.8003 0022944 310.1755  49.7482 15.44928963640088
Epoch: 2026-08-16T13:11Z
TLE epoch observation values (Epoch: 2026-08-16T13:11:37.827Z)
Latitude
-0.00005°
Longitude
108.94802°
Altitude
424.617 km
Speed
7.662 km/s
True Right ascension
18h 07m 12s
True Declination
0° 00' 00"
Sunlit
Object was in full shadow at epoch
Visualization orbit readout
Latitude
Unknown
Longitude
Unknown
Altitude
Unknown
Speed
Unknown
Apparent Right ascension
Unknown
Apparent Declination
Unknown
Sunlit
N/A
Visualization observer readout
Local Sidereal Time
16:32:08
Azimuth
Unknown
Elevation
Unknown
Doppler factor
Unknown
Orbital elements
Apogee altitude
444.162 km
Perigee altitude
412.927 km
Semi-major axis
6,806.682 km
Eccentricity
0.00229
Inclination
82.0344°
RAAN
271.8003°
Arg. of periapsis
310.1755°
True anomaly
49.94923°
Mean anomaly
49.7482°
Eccentric anomaly
49.84868°
Mean motion
3.86492 °/min
Orbital period
93.15 mins
BSTAR
0.00032106
Loading maneuver chart data...
Computing Atmospheric mass density...

Documentation

Showing up to 5 results
|